Tabellarische Ansicht des 7.5.2016


Die einzelnen Werte des Tages

Uhrzeit Temperatur Luftdruck Luftfeuchte Wind Hi-Wind Taupunkt THW Index Wind Chill Heat Index Solar- strahlung Regen

00:00

15.0 C

1010.6 hpa

64 %

0.0 km/h aus 105

0.0 km/h aus ---

8.2 C

14.4 C

15.0 C

14.4 C

0 W/m

0.00 mm

00:05

14.7 C

1010.6 hpa

66 %

0.0 km/h aus 115

0.0 km/h aus ---

8.4 C

14.2 C

14.7 C

14.2 C

0 W/m

0.00 mm

00:10

14.4 C

1010.6 hpa

67 %

0.0 km/h aus 113

0.0 km/h aus ---

8.3 C

13.9 C

14.4 C

13.9 C

0 W/m

0.00 mm

00:15

14.0 C

1010.7 hpa

68 %

0.0 km/h aus 110

0.0 km/h aus ---

8.2 C

13.5 C

14.0 C

13.5 C

0 W/m

0.00 mm

00:20

13.7 C

1010.7 hpa

69 %

0.0 km/h aus 113

0.0 km/h aus ---

8.1 C

13.3 C

13.7 C

13.3 C

0 W/m

0.00 mm

00:25

13.5 C

1010.7 hpa

69 %

0.0 km/h aus 109

0.0 km/h aus ---

7.9 C

13.1 C

13.5 C

13.1 C

0 W/m

0.00 mm

00:30

13.3 C

1010.7 hpa

70 %

0.0 km/h aus 112

0.0 km/h aus ---

8.0 C

12.9 C

13.3 C

12.9 C

0 W/m

0.00 mm

00:35

13.2 C

1010.7 hpa

70 %

0.0 km/h aus 108

0.0 km/h aus ---

7.9 C

12.8 C

13.2 C

12.8 C

0 W/m

0.00 mm

00:40

13.1 C

1010.7 hpa

70 %

0.0 km/h aus 114

0.0 km/h aus ---

7.7 C

12.6 C

13.1 C

12.6 C

0 W/m

0.00 mm

00:45

12.9 C

1010.7 hpa

71 %

0.0 km/h aus 111

0.0 km/h aus ---

7.8 C

12.5 C

12.9 C

12.5 C

0 W/m

0.00 mm

00:50

12.7 C

1010.7 hpa

72 %

0.0 km/h aus 114

0.0 km/h aus ---

7.8 C

12.3 C

12.7 C

12.3 C

0 W/m

0.00 mm

00:55

12.6 C

1010.7 hpa

73 %

0.0 km/h aus 103

1.6 km/h aus ENE

7.8 C

12.2 C

12.6 C

12.2 C

0 W/m

0.00 mm

01:00

12.4 C

1010.7 hpa

73 %

0.0 km/h aus 114

4.8 km/h aus ENE

7.7 C

12.1 C

12.4 C

12.1 C

0 W/m

0.00 mm

01:05

12.3 C

1010.7 hpa

74 %

1.6 km/h aus 110

4.8 km/h aus ENE

7.8 C

12.0 C

12.3 C

12.0 C

0 W/m

0.00 mm

01:10

12.1 C

1010.7 hpa

75 %

3.2 km/h aus 114

8.0 km/h aus E

7.8 C

11.8 C

12.1 C

11.8 C

0 W/m

0.00 mm

01:15

12.0 C

1010.7 hpa

75 %

3.2 km/h aus 112

8.0 km/h aus E

7.7 C

11.7 C

12.0 C

11.7 C

0 W/m

0.00 mm

01:20

11.9 C

1010.7 hpa

75 %

3.2 km/h aus 111

8.0 km/h aus E

7.6 C

11.6 C

11.9 C

11.6 C

0 W/m

0.00 mm

01:25

11.8 C

1010.7 hpa

75 %

4.8 km/h aus 106

9.7 km/h aus E

7.5 C

11.6 C

11.8 C

11.6 C

0 W/m

0.00 mm

01:30

11.8 C

1010.7 hpa

76 %

4.8 km/h aus 107

8.0 km/h aus E

7.7 C

11.5 C

11.8 C

11.5 C

0 W/m

0.00 mm

01:35

11.7 C

1010.7 hpa

76 %

4.8 km/h aus 106

6.4 km/h aus E

7.6 C

11.4 C

11.7 C

11.4 C

0 W/m

0.00 mm

01:40

11.7 C

1010.7 hpa

76 %

4.8 km/h aus 104

8.0 km/h aus E

7.6 C

11.4 C

11.7 C

11.4 C

0 W/m

0.00 mm

01:45

11.8 C

1010.7 hpa

76 %

6.4 km/h aus 97

8.0 km/h aus E

7.7 C

11.1 C

11.4 C

11.5 C

0 W/m

0.00 mm

01:50

12.1 C

1010.7 hpa

74 %

6.4 km/h aus 94

9.7 km/h aus ESE

7.6 C

11.6 C

11.8 C

11.8 C

0 W/m

0.00 mm

01:55

12.6 C

1010.7 hpa

72 %

6.4 km/h aus 92

9.7 km/h aus E

7.7 C

12.0 C

12.4 C

12.2 C

0 W/m

0.00 mm

02:00

13.0 C

1010.6 hpa

70 %

6.4 km/h aus 105

14.5 km/h aus ESE

7.7 C

12.4 C

12.8 C

12.6 C

0 W/m

0.00 mm

02:05

13.4 C

1010.6 hpa

68 %

4.8 km/h aus 100

11.3 km/h aus E

7.6 C

12.9 C

13.4 C

12.9 C

0 W/m

0.00 mm

02:10

13.7 C

1010.6 hpa

66 %

6.4 km/h aus 87

9.7 km/h aus E

7.5 C

13.1 C

13.7 C

13.2 C

0 W/m

0.00 mm

02:15

13.9 C

1010.6 hpa

66 %

6.4 km/h aus 97

11.3 km/h aus E

7.7 C

13.4 C

13.9 C

13.4 C

0 W/m

0.00 mm

02:20

14.1 C

1010.6 hpa

65 %

4.8 km/h aus 99

9.7 km/h aus E

7.6 C

13.5 C

14.1 C

13.5 C

0 W/m

0.00 mm

02:25

14.2 C

1010.6 hpa

64 %

4.8 km/h aus 94

14.5 km/h aus E

7.5 C

13.6 C

14.2 C

13.6 C

0 W/m

0.00 mm

02:30

14.4 C

1010.5 hpa

63 %

6.4 km/h aus 99

16.1 km/h aus ENE

7.4 C

13.8 C

14.4 C

13.8 C

0 W/m

0.00 mm

02:35

14.6 C

1010.5 hpa

62 %

4.8 km/h aus 103

11.3 km/h aus E

7.4 C

13.9 C

14.6 C

13.9 C

0 W/m

0.00 mm

02:40

14.7 C

1010.5 hpa

61 %

4.8 km/h aus 99

12.9 km/h aus E

7.2 C

14.0 C

14.7 C

14.0 C

0 W/m

0.00 mm

02:45

14.7 C

1010.3 hpa

61 %

3.2 km/h aus 107

11.3 km/h aus ESE

7.3 C

14.1 C

14.7 C

14.1 C

0 W/m

0.00 mm

02:50

14.7 C

1010.3 hpa

61 %

3.2 km/h aus 106

9.7 km/h aus E

7.3 C

14.1 C

14.7 C

14.1 C

0 W/m

0.00 mm

02:55

14.7 C

1010.3 hpa

60 %

3.2 km/h aus 109

11.3 km/h aus E

7.0 C

14.0 C

14.7 C

14.0 C

0 W/m

0.00 mm

03:00

14.7 C

1010.3 hpa

61 %

4.8 km/h aus 105

9.7 km/h aus ESE

7.3 C

14.1 C

14.7 C

14.1 C

0 W/m

0.00 mm

03:05

14.7 C

1010.3 hpa

60 %

6.4 km/h aus 101

14.5 km/h aus ESE

7.0 C

14.0 C

14.7 C

14.0 C

0 W/m

0.00 mm

03:10

14.7 C

1010.3 hpa

60 %

3.2 km/h aus 106

9.7 km/h aus E

7.0 C

13.9 C

14.7 C

13.9 C

0 W/m

0.00 mm

03:15

14.7 C

1010.3 hpa

60 %

1.6 km/h aus 110

8.0 km/h aus E

7.0 C

13.9 C

14.7 C

13.9 C

0 W/m

0.00 mm

03:20

14.7 C

1010.3 hpa

60 %

3.2 km/h aus 97

9.7 km/h aus E

7.0 C

14.0 C

14.7 C

14.0 C

0 W/m

0.00 mm

03:25

14.8 C

1010.3 hpa

60 %

1.6 km/h aus 101

8.0 km/h aus E

7.1 C

14.1 C

14.8 C

14.1 C

0 W/m

0.00 mm

03:30

14.8 C

1010.2 hpa

60 %

0.0 km/h aus 105

6.4 km/h aus E

7.1 C

14.1 C

14.8 C

14.1 C

0 W/m

0.00 mm

03:35

14.7 C

1010.2 hpa

60 %

0.0 km/h aus 112

0.0 km/h aus ---

7.0 C

14.0 C

14.7 C

14.0 C

0 W/m

0.00 mm

03:40

14.7 C

1010.2 hpa

60 %

0.0 km/h aus 111

4.8 km/h aus ENE

7.0 C

13.9 C

14.7 C

13.9 C

0 W/m

0.00 mm

03:45

14.5 C

1010.2 hpa

61 %

1.6 km/h aus 110

8.0 km/h aus E

7.1 C

13.8 C

14.5 C

13.8 C

0 W/m

0.00 mm

03:50

14.4 C

1010.2 hpa

61 %

1.6 km/h aus 110

9.7 km/h aus E

7.0 C

13.8 C

14.4 C

13.8 C

0 W/m

0.00 mm

03:55

14.4 C

1010.2 hpa

62 %

3.2 km/h aus 105

11.3 km/h aus E

7.2 C

13.8 C

14.4 C

13.8 C

0 W/m

0.00 mm

04:00

14.4 C

1010.1 hpa

62 %

4.8 km/h aus 101

12.9 km/h aus SE

7.2 C

13.7 C

14.4 C

13.7 C

0 W/m

0.00 mm

04:05

14.3 C

1010.1 hpa

62 %

4.8 km/h aus 108

11.3 km/h aus SE

7.1 C

13.7 C

14.3 C

13.7 C

0 W/m

0.00 mm

04:10

14.3 C

1010.1 hpa

63 %

4.8 km/h aus 108

11.3 km/h aus SE

7.3 C

13.7 C

14.3 C

13.7 C

0 W/m

0.00 mm

04:15

14.2 C

1010.1 hpa

63 %

6.4 km/h aus 110

11.3 km/h aus ESE

7.3 C

13.6 C

14.2 C

13.6 C

0 W/m

0.00 mm

04:20

14.2 C

1010.1 hpa

63 %

6.4 km/h aus 104

17.7 km/h aus ESE

7.3 C

13.6 C

14.2 C

13.6 C

0 W/m

0.00 mm

04:25

14.2 C

1010.1 hpa

63 %

4.8 km/h aus 99

12.9 km/h aus ESE

7.3 C

13.6 C

14.2 C

13.6 C

0 W/m

0.00 mm

04:30

14.3 C

1010.1 hpa

63 %

4.8 km/h aus 106

11.3 km/h aus E

7.3 C

13.7 C

14.3 C

13.7 C

0 W/m

0.00 mm

04:35

14.3 C

1010.1 hpa

63 %

1.6 km/h aus 114

9.7 km/h aus ESE

7.3 C

13.7 C

14.3 C

13.7 C

0 W/m

0.00 mm

04:40

14.2 C

1010.1 hpa

63 %

3.2 km/h aus 105

12.9 km/h aus E

7.3 C

13.6 C

14.2 C

13.6 C

0 W/m

0.00 mm

04:45

14.2 C

1010.1 hpa

63 %

3.2 km/h aus 105

9.7 km/h aus E

7.3 C

13.6 C

14.2 C

13.6 C

0 W/m

0.00 mm

04:50

14.2 C

1010.1 hpa

63 %

3.2 km/h aus 96

11.3 km/h aus ESE

7.3 C

13.6 C

14.2 C

13.6 C

0 W/m

0.00 mm

04:55

14.2 C

1010.1 hpa

63 %

4.8 km/h aus 88

8.0 km/h aus ESE

7.3 C

13.6 C

14.2 C

13.6 C

0 W/m

0.00 mm

05:00

14.3 C

1010.1 hpa

63 %

6.4 km/h aus 100

16.1 km/h aus ESE

7.3 C

13.7 C

14.3 C

13.7 C

0 W/m

0.00 mm

05:05

14.3 C

1010.1 hpa

63 %

4.8 km/h aus 102

9.7 km/h aus ESE

7.3 C

13.7 C

14.3 C

13.7 C

0 W/m

0.00 mm

05:10

14.3 C

1010.1 hpa

63 %

6.4 km/h aus 83

14.5 km/h aus ESE

7.4 C

13.7 C

14.3 C

13.7 C

0 W/m

0.00 mm

05:15

14.3 C

1010.0 hpa

62 %

6.4 km/h aus 89

11.3 km/h aus ESE

7.1 C

13.7 C

14.3 C

13.7 C

0 W/m

0.00 mm

05:20

14.4 C

1010.0 hpa

62 %

6.4 km/h aus 88

14.5 km/h aus ESE

7.2 C

13.7 C

14.4 C

13.7 C

0 W/m

0.00 mm

05:25

14.4 C

1010.0 hpa

62 %

6.4 km/h aus 81

19.3 km/h aus E

7.2 C

13.7 C

14.4 C

13.7 C

0 W/m

0.00 mm

05:30

14.4 C

1010.1 hpa

62 %

4.8 km/h aus 80

11.3 km/h aus E

7.2 C

13.8 C

14.4 C

13.8 C

0 W/m

0.00 mm

05:35

14.4 C

1010.1 hpa

62 %

6.4 km/h aus 84

16.1 km/h aus ESE

7.2 C

13.8 C

14.4 C

13.8 C

0 W/m

0.00 mm

05:40

14.4 C

1010.1 hpa

62 %

6.4 km/h aus 74

16.1 km/h aus E

7.2 C

13.8 C

14.4 C

13.8 C

4 W/m

0.00 mm

05:45

14.5 C

1010.1 hpa

62 %

3.2 km/h aus 88

11.3 km/h aus ESE

7.3 C

13.8 C

14.5 C

13.8 C

6 W/m

0.00 mm

05:50

14.5 C

1010.1 hpa

62 %

4.8 km/h aus 78

14.5 km/h aus ESE

7.3 C

13.8 C

14.5 C

13.8 C

9 W/m

0.00 mm

05:55

14.5 C

1010.1 hpa

62 %

1.6 km/h aus 79

11.3 km/h aus ESE

7.3 C

13.8 C

14.5 C

13.8 C

11 W/m

0.00 mm

06:00

14.4 C

1010.1 hpa

62 %

1.6 km/h aus 90

8.0 km/h aus E

7.2 C

13.8 C

14.4 C

13.8 C

13 W/m

0.00 mm

06:05

14.4 C

1010.1 hpa

62 %

0.0 km/h aus 94

6.4 km/h aus ESE

7.2 C

13.8 C

14.4 C

13.8 C

15 W/m

0.00 mm

06:10

14.4 C

1010.1 hpa

63 %

1.6 km/h aus 85

11.3 km/h aus E

7.4 C

13.8 C

14.4 C

13.8 C

18 W/m

0.00 mm

06:15

14.3 C

1010.2 hpa

62 %

3.2 km/h aus 87

11.3 km/h aus ENE

7.1 C

13.7 C

14.3 C

13.7 C

20 W/m

0.00 mm

06:20

14.3 C

1010.2 hpa

63 %

3.2 km/h aus 89

11.3 km/h aus ENE

7.4 C

13.7 C

14.3 C

13.7 C

24 W/m

0.00 mm

06:25

14.4 C

1010.2 hpa

63 %

3.2 km/h aus 78

17.7 km/h aus ESE

7.4 C

13.8 C

14.4 C

13.8 C

30 W/m

0.00 mm

06:30

14.4 C

1010.2 hpa

62 %

3.2 km/h aus 83

6.4 km/h aus ESE

7.2 C

13.8 C

14.4 C

13.8 C

32 W/m

0.00 mm

06:35

14.5 C

1010.2 hpa

62 %

3.2 km/h aus 68

17.7 km/h aus E

7.3 C

13.8 C

14.5 C

13.8 C

52 W/m

0.00 mm

06:40

14.6 C

1010.2 hpa

62 %

4.8 km/h aus 61

14.5 km/h aus ESE

7.4 C

13.9 C

14.6 C

13.9 C

63 W/m

0.00 mm

06:45

14.8 C

1010.2 hpa

62 %

3.2 km/h aus 53

9.7 km/h aus ESE

7.6 C

14.1 C

14.8 C

14.1 C

77 W/m

0.00 mm

06:50

14.9 C

1010.2 hpa

61 %

8.0 km/h aus 59

16.1 km/h aus E

7.5 C

14.2 C

14.8 C

14.3 C

90 W/m

0.00 mm

06:55

15.2 C

1010.2 hpa

61 %

3.2 km/h aus 63

9.7 km/h aus ESE

7.7 C

14.5 C

15.2 C

14.5 C

101 W/m

0.00 mm

07:00

15.4 C

1010.3 hpa

60 %

6.4 km/h aus 53

16.1 km/h aus E

7.7 C

14.7 C

15.4 C

14.7 C

111 W/m

0.00 mm

07:05

15.7 C

1010.3 hpa

59 %

4.8 km/h aus 54

12.9 km/h aus E

7.7 C

14.9 C

15.7 C

14.9 C

111 W/m

0.00 mm

07:10

15.8 C

1010.3 hpa

59 %

6.4 km/h aus 59

11.3 km/h aus E

7.8 C

15.1 C

15.8 C

15.1 C

148 W/m

0.00 mm

07:15

16.0 C

1010.4 hpa

59 %

6.4 km/h aus 56

11.3 km/h aus ESE

8.0 C

15.3 C

16.0 C

15.3 C

148 W/m

0.00 mm

07:20

16.2 C

1010.4 hpa

58 %

8.0 km/h aus 62

17.7 km/h aus ESE

7.9 C

15.4 C

16.2 C

15.4 C

185 W/m

0.00 mm

07:25

16.4 C

1010.4 hpa

58 %

8.0 km/h aus 65

16.1 km/h aus E

8.2 C

15.7 C

16.4 C

15.7 C

185 W/m

0.00 mm

07:30

16.6 C

1010.5 hpa

58 %

8.0 km/h aus 62

14.5 km/h aus E

8.3 C

15.9 C

16.6 C

15.9 C

185 W/m

0.00 mm

07:35

16.8 C

1010.5 hpa

58 %

8.0 km/h aus 62

16.1 km/h aus ESE

8.5 C

16.1 C

16.8 C

16.1 C

234 W/m

0.00 mm

07:40

17.0 C

1010.5 hpa

57 %

4.8 km/h aus 86

11.3 km/h aus SE

8.4 C

16.3 C

17.0 C

16.3 C

250 W/m

0.00 mm

07:45

17.2 C

1010.5 hpa

57 %

6.4 km/h aus 80

16.1 km/h aus ESE

8.6 C

16.4 C

17.2 C

16.4 C

261 W/m

0.00 mm

07:50

17.4 C

1010.5 hpa

56 %

4.8 km/h aus 81

14.5 km/h aus ESE

8.5 C

16.7 C

17.4 C

16.7 C

283 W/m

0.00 mm

07:55

17.7 C

1010.5 hpa

55 %

8.0 km/h aus 61

16.1 km/h aus E

8.5 C

16.9 C

17.7 C

16.9 C

287 W/m

0.00 mm

08:00

17.9 C

1010.6 hpa

54 %

8.0 km/h aus 64

17.7 km/h aus ESE

8.4 C

17.1 C

17.9 C

17.1 C

308 W/m

0.00 mm

08:05

18.1 C

1010.6 hpa

53 %

6.4 km/h aus 73

11.3 km/h aus NE

8.4 C

17.3 C

18.1 C

17.3 C

316 W/m

0.00 mm

08:10

18.3 C

1010.6 hpa

52 %

8.0 km/h aus 68

17.7 km/h aus E

8.2 C

17.4 C

18.3 C

17.4 C

336 W/m

0.00 mm

08:15

18.4 C

1010.7 hpa

53 %

6.4 km/h aus 76

19.3 km/h aus ESE

8.7 C

17.7 C

18.4 C

17.7 C

346 W/m

0.00 mm

08:20

18.7 C

1010.7 hpa

53 %

3.2 km/h aus 90

12.9 km/h aus ESE

8.9 C

17.9 C

18.7 C

17.9 C

358 W/m

0.00 mm

08:25

18.9 C

1010.7 hpa

51 %

8.0 km/h aus 84

16.1 km/h aus ESE

8.5 C

18.1 C

18.9 C

18.1 C

377 W/m

0.00 mm

08:30

19.1 C

1010.8 hpa

51 %

3.2 km/h aus 79

16.1 km/h aus ESE

8.7 C

18.3 C

19.1 C

18.3 C

388 W/m

0.00 mm

08:35

19.3 C

1010.8 hpa

51 %

4.8 km/h aus 61

11.3 km/h aus E

8.9 C

18.5 C

19.3 C

18.5 C

390 W/m

0.00 mm

08:40

19.6 C

1010.8 hpa

51 %

4.8 km/h aus 82

11.3 km/h aus ESE

9.1 C

18.8 C

19.6 C

18.8 C

413 W/m

0.00 mm

08:45

19.7 C

1010.7 hpa

50 %

3.2 km/h aus 77

8.0 km/h aus ENE

9.0 C

18.9 C

19.7 C

18.9 C

428 W/m

0.00 mm

08:50

19.9 C

1010.7 hpa

49 %

6.4 km/h aus 83

17.7 km/h aus ESE

8.9 C

19.1 C

19.9 C

19.1 C

432 W/m

0.00 mm

08:55

20.0 C

1010.7 hpa

49 %

8.0 km/h aus 72

17.7 km/h aus ESE

9.0 C

19.2 C

20.0 C

19.2 C

461 W/m

0.00 mm

09:00

20.2 C

1010.8 hpa

49 %

6.4 km/h aus 63

20.9 km/h aus ESE

9.1 C

19.4 C

20.2 C

19.4 C

482 W/m

0.00 mm

09:05

20.4 C

1010.8 hpa

48 %

3.2 km/h aus 78

19.3 km/h aus ESE

9.0 C

19.5 C

20.4 C

19.5 C

489 W/m

0.00 mm

09:10

20.4 C

1010.8 hpa

48 %

9.7 km/h aus 85

16.1 km/h aus E

9.1 C

19.6 C

20.4 C

19.6 C

501 W/m

0.00 mm

09:15

20.2 C

1010.9 hpa

48 %

11.3 km/h aus 64

19.3 km/h aus E

8.8 C

19.3 C

20.2 C

19.3 C

516 W/m

0.00 mm

09:20

19.9 C

1010.9 hpa

52 %

4.8 km/h aus 63

14.5 km/h aus ESE

9.8 C

19.3 C

19.9 C

19.3 C

526 W/m

0.00 mm

09:25

20.1 C

1010.9 hpa

49 %

8.0 km/h aus 62

17.7 km/h aus E

9.1 C

19.3 C

20.1 C

19.3 C

543 W/m

0.00 mm

09:30

20.0 C

1010.8 hpa

47 %

11.3 km/h aus 60

22.5 km/h aus E

8.3 C

19.1 C

20.0 C

19.1 C

560 W/m

0.00 mm

09:35

20.0 C

1010.8 hpa

50 %

9.7 km/h aus 56

19.3 km/h aus E

9.3 C

19.3 C

20.0 C

19.3 C

561 W/m

0.00 mm

09:40

20.1 C

1010.8 hpa

47 %

11.3 km/h aus 71

24.1 km/h aus SSE

8.4 C

19.2 C

20.1 C

19.2 C

585 W/m

0.00 mm

09:45

20.3 C

1010.7 hpa

49 %

9.7 km/h aus 60

20.9 km/h aus E

9.2 C

19.4 C

20.3 C

19.4 C

587 W/m

0.00 mm

09:50

20.4 C

1010.7 hpa

49 %

11.3 km/h aus 70

20.9 km/h aus E

9.4 C

19.6 C

20.4 C

19.6 C

605 W/m

0.00 mm

09:55

20.7 C

1010.7 hpa

48 %

6.4 km/h aus 54

16.1 km/h aus ENE

9.3 C

19.8 C

20.7 C

19.8 C

605 W/m

0.00 mm

10:00

20.8 C

1010.8 hpa

48 %

9.7 km/h aus 74

20.9 km/h aus ESE

9.4 C

19.8 C

20.8 C

19.8 C

625 W/m

0.00 mm

10:05

20.9 C

1010.8 hpa

47 %

8.0 km/h aus 60

22.5 km/h aus E

9.2 C

19.8 C

20.9 C

19.8 C

626 W/m

0.00 mm

10:10

21.1 C

1010.8 hpa

46 %

11.3 km/h aus 71

19.3 km/h aus ENE

9.0 C

19.9 C

21.1 C

19.9 C

656 W/m

0.00 mm

10:15

21.3 C

1010.9 hpa

48 %

9.7 km/h aus 61

17.7 km/h aus E

9.9 C

20.3 C

21.3 C

20.3 C

657 W/m

0.00 mm

10:20

21.3 C

1010.9 hpa

50 %

6.4 km/h aus 65

24.1 km/h aus ESE

10.5 C

20.4 C

21.3 C

20.4 C

668 W/m

0.00 mm

10:25

21.4 C

1010.9 hpa

47 %

9.7 km/h aus 76

19.3 km/h aus E

9.7 C

20.4 C

21.4 C

20.4 C

679 W/m

0.00 mm

10:30

21.7 C

1010.8 hpa

49 %

6.4 km/h aus 77

14.5 km/h aus NE

10.5 C

20.9 C

21.7 C

20.9 C

692 W/m

0.00 mm

10:35

22.0 C

1010.8 hpa

47 %

4.8 km/h aus 81

14.5 km/h aus E

10.2 C

21.2 C

22.0 C

21.2 C

694 W/m

0.00 mm

10:40

22.0 C

1010.8 hpa

46 %

6.4 km/h aus 87

17.7 km/h aus E

9.8 C

21.2 C

22.0 C

21.2 C

712 W/m

0.00 mm

10:45

21.7 C

1011.0 hpa

47 %

9.7 km/h aus 92

25.7 km/h aus SE

9.9 C

20.8 C

21.7 C

20.8 C

720 W/m

0.00 mm

10:50

21.9 C

1011.0 hpa

49 %

11.3 km/h aus 79

27.4 km/h aus ESE

10.7 C

21.2 C

21.9 C

21.2 C

728 W/m

0.00 mm

10:55

22.2 C

1011.0 hpa

45 %

8.0 km/h aus 76

19.3 km/h aus E

9.7 C

21.4 C

22.2 C

21.4 C

739 W/m

0.00 mm

11:00

22.2 C

1011.0 hpa

45 %

12.9 km/h aus 89

27.4 km/h aus ESE

9.7 C

21.1 C

21.9 C

21.4 C

746 W/m

0.00 mm

11:05

22.2 C

1011.0 hpa

48 %

8.0 km/h aus 88

16.1 km/h aus SSE

10.6 C

21.6 C

22.2 C

21.6 C

752 W/m

0.00 mm

11:10

22.4 C

1011.0 hpa

48 %

8.0 km/h aus 93

22.5 km/h aus SE

10.9 C

21.9 C

22.4 C

21.9 C

763 W/m

0.00 mm

11:15

22.4 C

1011.0 hpa

44 %

12.9 km/h aus 105

24.1 km/h aus ESE

9.6 C

21.4 C

22.2 C

21.7 C

772 W/m

0.00 mm

11:20

22.6 C

1011.0 hpa

47 %

8.0 km/h aus 94

24.1 km/h aus ESE

10.7 C

22.1 C

22.6 C

22.1 C

778 W/m

0.00 mm

11:25

22.7 C

1011.0 hpa

43 %

14.5 km/h aus 97

27.4 km/h aus E

9.5 C

21.3 C

21.9 C

22.1 C

786 W/m

0.00 mm

11:30

22.8 C

1010.9 hpa

43 %

12.9 km/h aus 102

25.7 km/h aus ESE

9.6 C

22.0 C

22.6 C

22.3 C

792 W/m

0.00 mm

11:35

22.8 C

1010.9 hpa

45 %

9.7 km/h aus 115

19.3 km/h aus ESE

10.3 C

22.3 C

22.8 C

22.3 C

801 W/m

0.00 mm

11:40

22.8 C

1010.9 hpa

43 %

14.5 km/h aus 110

25.7 km/h aus ESE

9.5 C

21.4 C

22.0 C

22.2 C

807 W/m

0.00 mm

11:45

23.1 C

1010.7 hpa

43 %

11.3 km/h aus 107

24.1 km/h aus ESE

9.8 C

22.6 C

23.1 C

22.6 C

813 W/m

0.00 mm

11:50

23.3 C

1010.7 hpa

40 %

11.3 km/h aus 104

20.9 km/h aus ESE

8.9 C

22.8 C

23.3 C

22.8 C

819 W/m

0.00 mm

11:55

23.4 C

1010.7 hpa

38 %

9.7 km/h aus 104

22.5 km/h aus ESE

8.3 C

22.8 C

23.4 C

22.8 C

827 W/m

0.00 mm

12:00

23.6 C

1010.7 hpa

40 %

12.9 km/h aus 110

29.0 km/h aus E

9.2 C

22.8 C

23.3 C

23.1 C

831 W/m

0.00 mm

12:05

23.6 C

1010.7 hpa

40 %

12.9 km/h aus 107

25.7 km/h aus ESE

9.2 C

22.8 C

23.3 C

23.1 C

837 W/m

0.00 mm

12:10

23.9 C

1010.7 hpa

40 %

9.7 km/h aus 111

22.5 km/h aus ENE

9.5 C

23.4 C

23.9 C

23.4 C

842 W/m

0.00 mm

12:15

23.7 C

1010.6 hpa

38 %

9.7 km/h aus 98

22.5 km/h aus SE

8.6 C

23.2 C

23.7 C

23.2 C

846 W/m

0.00 mm

12:20

23.6 C

1010.6 hpa

33 %

17.7 km/h aus 107

33.8 km/h aus ENE

6.4 C

21.5 C

22.3 C

22.8 C

849 W/m

0.00 mm

12:25

23.9 C

1010.6 hpa

38 %

11.3 km/h aus 106

24.1 km/h aus ESE

8.7 C

23.3 C

23.9 C

23.3 C

852 W/m

0.00 mm

12:30

24.1 C

1010.6 hpa

36 %

14.5 km/h aus 101

29.0 km/h aus ESE

8.1 C

22.8 C

23.4 C

23.5 C

854 W/m

0.00 mm

12:35

23.9 C

1010.6 hpa

35 %

17.7 km/h aus 108

35.4 km/h aus E

7.5 C

21.9 C

22.6 C

23.2 C

861 W/m

0.00 mm

12:40

23.6 C

1010.6 hpa

34 %

17.7 km/h aus 102

30.6 km/h aus ESE

6.8 C

21.4 C

22.2 C

22.8 C

861 W/m

0.00 mm

12:45

23.8 C

1010.6 hpa

38 %

14.5 km/h aus 95

29.0 km/h aus ESE

8.6 C

22.5 C

23.1 C

23.2 C

867 W/m

0.00 mm

12:50

23.7 C

1010.6 hpa

34 %

19.3 km/h aus 100

37.0 km/h aus E

6.9 C

21.4 C

22.1 C

22.9 C

864 W/m

0.00 mm

12:55

24.1 C

1010.6 hpa

35 %

12.9 km/h aus 114

32.2 km/h aus E

7.6 C

23.1 C

23.8 C

23.4 C

866 W/m

0.00 mm

13:00

23.9 C

1010.5 hpa

37 %

19.3 km/h aus 108

37.0 km/h aus ESE

8.3 C

21.8 C

22.3 C

23.3 C

871 W/m

0.00 mm

13:05

24.1 C

1010.5 hpa

38 %

14.5 km/h aus 99

29.0 km/h aus SE

8.9 C

22.8 C

23.3 C

23.5 C

870 W/m

0.00 mm

13:10

23.9 C

1010.5 hpa

33 %

19.3 km/h aus 107

32.2 km/h aus SE

6.6 C

21.6 C

22.3 C

23.1 C

866 W/m

0.00 mm

13:15

24.0 C

1010.2 hpa

33 %

14.5 km/h aus 110

32.2 km/h aus ENE

6.7 C

22.5 C

23.3 C

23.2 C

867 W/m

0.00 mm

13:20

24.3 C

1010.2 hpa

38 %

12.9 km/h aus 105

33.8 km/h aus ENE

9.0 C

23.4 C

24.0 C

23.7 C

865 W/m

0.00 mm

13:25

24.3 C

1010.2 hpa

32 %

17.7 km/h aus 110

32.2 km/h aus ENE

6.5 C

22.2 C

23.0 C

23.5 C

864 W/m

0.00 mm

13:30

24.2 C

1010.4 hpa

35 %

16.1 km/h aus 110

30.6 km/h aus E

7.7 C

22.4 C

23.1 C

23.5 C

871 W/m

0.00 mm

13:35

24.3 C

1010.4 hpa

39 %

12.9 km/h aus 97

30.6 km/h aus ESE

9.4 C

23.5 C

24.0 C

23.8 C

870 W/m

0.00 mm

13:40

24.3 C

1010.4 hpa

36 %

17.7 km/h aus 114

30.6 km/h aus ENE

8.3 C

22.4 C

23.1 C

23.7 C

868 W/m

0.00 mm

13:45

24.1 C

1010.2 hpa

33 %

19.3 km/h aus 116

35.4 km/h aus E

6.8 C

21.8 C

22.6 C

23.3 C

875 W/m

0.00 mm

13:50

23.9 C

1010.2 hpa

34 %

14.5 km/h aus 111

32.2 km/h aus E

7.1 C

22.5 C

23.2 C

23.2 C

862 W/m

0.00 mm

13:55

24.1 C

1010.2 hpa

36 %

17.7 km/h aus 106

37.0 km/h aus SSE

8.1 C

22.1 C

22.7 C

23.4 C

858 W/m

0.00 mm

14:00

23.9 C

1010.1 hpa

34 %

14.5 km/h aus 113

32.2 km/h aus SE

7.1 C

22.4 C

23.2 C

23.2 C

856 W/m

0.00 mm

14:05

24.3 C

1010.1 hpa

36 %

14.5 km/h aus 116

29.0 km/h aus E

8.2 C

22.9 C

23.6 C

23.7 C

855 W/m

0.00 mm

14:10

24.3 C

1010.1 hpa

38 %

16.1 km/h aus 111

27.4 km/h aus SSE

9.0 C

22.7 C

23.2 C

23.7 C

848 W/m

0.00 mm

14:15

24.2 C

1010.1 hpa

35 %

17.7 km/h aus 114

33.8 km/h aus SE

7.8 C

22.3 C

22.9 C

23.6 C

844 W/m

0.00 mm

14:20

24.2 C

1010.1 hpa

35 %

19.3 km/h aus 112

37.0 km/h aus SSE

7.8 C

22.1 C

22.7 C

23.6 C

842 W/m

0.00 mm

14:25

24.2 C

1010.1 hpa

37 %

17.7 km/h aus 113

32.2 km/h aus ESE

8.6 C

22.3 C

22.9 C

23.6 C

837 W/m

0.00 mm

14:30

24.3 C

1010.1 hpa

34 %

12.9 km/h aus 107

25.7 km/h aus ESE

7.4 C

23.3 C

24.0 C

23.6 C

830 W/m

0.00 mm

14:35

24.4 C

1010.1 hpa

36 %

16.1 km/h aus 114

29.0 km/h aus SE

8.4 C

22.8 C

23.4 C

23.8 C

825 W/m

0.00 mm

14:40

24.4 C

1010.1 hpa

35 %

17.7 km/h aus 108

33.8 km/h aus ESE

7.9 C

22.4 C

23.1 C

23.7 C

819 W/m

0.00 mm

14:45

24.4 C

1009.8 hpa

34 %

14.5 km/h aus 109

33.8 km/h aus ESE

7.6 C

23.0 C

23.7 C

23.7 C

812 W/m

0.00 mm

14:50

24.6 C

1009.8 hpa

35 %

9.7 km/h aus 105

19.3 km/h aus SE

8.1 C

24.0 C

24.6 C

24.0 C

806 W/m

0.00 mm

14:55

24.6 C

1009.8 hpa

36 %

16.1 km/h aus 108

33.8 km/h aus SE

8.5 C

22.9 C

23.5 C

23.9 C

800 W/m

0.00 mm

15:00

24.6 C

1009.6 hpa

35 %

16.1 km/h aus 90

30.6 km/h aus SE

8.1 C

22.9 C

23.6 C

24.0 C

796 W/m

0.00 mm

15:05

24.7 C

1009.6 hpa

33 %

12.9 km/h aus 108

29.0 km/h aus ESE

7.4 C

23.8 C

24.4 C

24.1 C

785 W/m

0.00 mm

15:10

24.8 C

1009.6 hpa

35 %

11.3 km/h aus 112

24.1 km/h aus ESE

8.3 C

24.2 C

24.8 C

24.2 C

780 W/m

0.00 mm

15:15

24.9 C

1009.6 hpa

35 %

11.3 km/h aus 113

25.7 km/h aus SSE

8.4 C

24.3 C

24.9 C

24.3 C

773 W/m

0.00 mm

15:20

24.9 C

1009.6 hpa

37 %

9.7 km/h aus 97

24.1 km/h aus SE

9.2 C

24.4 C

24.9 C

24.4 C

765 W/m

0.00 mm

15:25

25.3 C

1009.6 hpa

30 %

12.9 km/h aus 105

25.7 km/h aus ENE

6.5 C

24.2 C

25.0 C

24.5 C

755 W/m

0.00 mm

15:30

25.3 C

1009.6 hpa

29 %

11.3 km/h aus 102

22.5 km/h aus E

6.0 C

24.5 C

25.3 C

24.5 C

746 W/m

0.00 mm

15:35

25.4 C

1009.6 hpa

31 %

8.0 km/h aus 105

22.5 km/h aus E

7.0 C

24.6 C

25.4 C

24.6 C

740 W/m

0.00 mm

15:40

25.3 C

1009.6 hpa

31 %

9.7 km/h aus 104

20.9 km/h aus E

7.0 C

24.6 C

25.3 C

24.6 C

731 W/m

0.00 mm

15:45

25.7 C

1009.4 hpa

32 %

9.7 km/h aus 96

19.3 km/h aus E

7.7 C

24.8 C

25.7 C

24.8 C

724 W/m

0.00 mm

15:50

25.5 C

1009.4 hpa

33 %

9.7 km/h aus 109

22.5 km/h aus ENE

8.0 C

24.7 C

25.5 C

24.7 C

708 W/m

0.00 mm

15:55

25.3 C

1009.4 hpa

32 %

11.3 km/h aus 105

24.1 km/h aus ESE

7.4 C

24.6 C

25.3 C

24.6 C

701 W/m

0.00 mm

16:00

25.3 C

1009.1 hpa

35 %

12.9 km/h aus 103

22.5 km/h aus SE

8.7 C

24.3 C

25.0 C

24.6 C

689 W/m

0.00 mm

16:05

25.3 C

1009.1 hpa

36 %

6.4 km/h aus 91

22.5 km/h aus ESE

9.2 C

24.7 C

25.3 C

24.7 C

676 W/m

0.00 mm

16:10

25.4 C

1009.1 hpa

33 %

9.7 km/h aus 98

20.9 km/h aus ESE

8.0 C

24.7 C

25.4 C

24.7 C

668 W/m

0.00 mm

16:15

25.6 C

1009.0 hpa

35 %

9.7 km/h aus 89

24.1 km/h aus E

9.0 C

24.8 C

25.6 C

24.8 C

663 W/m

0.00 mm

16:20

25.4 C

1009.0 hpa

32 %

9.7 km/h aus 101

22.5 km/h aus E

7.5 C

24.7 C

25.4 C

24.7 C

649 W/m

0.00 mm

16:25

25.2 C

1009.0 hpa

32 %

4.8 km/h aus 91

12.9 km/h aus ENE

7.3 C

24.5 C

25.2 C

24.5 C

635 W/m

0.00 mm

16:30

25.3 C

1009.0 hpa

33 %

8.0 km/h aus 103

19.3 km/h aus ESE

7.8 C

24.6 C

25.3 C

24.6 C

628 W/m

0.00 mm

16:35

25.1 C

1009.0 hpa

35 %

8.0 km/h aus 98

20.9 km/h aus E

8.6 C

24.5 C

25.1 C

24.5 C

615 W/m

0.00 mm

16:40

25.3 C

1009.0 hpa

33 %

9.7 km/h aus 95

22.5 km/h aus ENE

7.9 C

24.6 C

25.3 C

24.6 C

600 W/m

0.00 mm

16:45

25.4 C

1008.9 hpa

32 %

9.7 km/h aus 99

25.7 km/h aus ENE

7.5 C

24.6 C

25.4 C

24.6 C

582 W/m

0.00 mm

16:50

25.4 C

1008.9 hpa

34 %

8.0 km/h aus 101

17.7 km/h aus E

8.4 C

24.7 C

25.4 C

24.7 C

556 W/m

0.00 mm

16:55

25.3 C

1008.9 hpa

35 %

4.8 km/h aus 91

16.1 km/h aus NE

8.7 C

24.6 C

25.3 C

24.6 C

556 W/m

0.00 mm

17:00

25.2 C

1008.9 hpa

33 %

9.7 km/h aus 76

22.5 km/h aus NE

7.7 C

24.5 C

25.2 C

24.5 C

545 W/m

0.00 mm

17:05

25.1 C

1008.9 hpa

35 %

11.3 km/h aus 117

27.4 km/h aus ESE

8.6 C

24.5 C

25.1 C

24.5 C

528 W/m

0.00 mm

17:10

25.1 C

1008.9 hpa

33 %

14.5 km/h aus 115

27.4 km/h aus NE

7.7 C

23.8 C

24.4 C

24.4 C

520 W/m

0.00 mm

17:15

24.8 C

1008.9 hpa

34 %

16.1 km/h aus 116

30.6 km/h aus ENE

7.9 C

23.2 C

23.8 C

24.2 C

501 W/m

0.00 mm

17:20

24.7 C

1008.9 hpa

34 %

9.7 km/h aus 114

24.1 km/h aus NNE

7.7 C

24.0 C

24.7 C

24.0 C

496 W/m

0.00 mm

17:25

24.6 C

1008.9 hpa

34 %

11.3 km/h aus 117

32.2 km/h aus ESE

7.7 C

23.9 C

24.6 C

23.9 C

483 W/m

0.00 mm

17:30

24.6 C

1008.8 hpa

35 %

12.9 km/h aus 85

29.0 km/h aus NE

8.1 C

23.6 C

24.3 C

23.9 C

462 W/m

0.00 mm

17:35

24.6 C

1008.8 hpa

33 %

14.5 km/h aus 112

25.7 km/h aus NE

7.2 C

23.1 C

23.8 C

23.8 C

447 W/m

0.00 mm

17:40

24.5 C

1008.8 hpa

32 %

12.9 km/h aus 116

27.4 km/h aus ENE

6.7 C

23.4 C

24.2 C

23.7 C

428 W/m

0.00 mm

17:45

24.5 C

1008.9 hpa

34 %

11.3 km/h aus 117

24.1 km/h aus NE

7.6 C

23.8 C

24.5 C

23.8 C

425 W/m

0.00 mm

17:50

24.4 C

1008.9 hpa

34 %

12.9 km/h aus 117

22.5 km/h aus NE

7.6 C

23.4 C

24.2 C

23.7 C

417 W/m

0.00 mm

17:55

24.5 C

1008.9 hpa

35 %

9.7 km/h aus 115

27.4 km/h aus ENE

8.0 C

23.8 C

24.5 C

23.8 C

405 W/m

0.00 mm

18:00

24.6 C

1008.8 hpa

34 %

9.7 km/h aus 116

29.0 km/h aus NE

7.7 C

23.9 C

24.6 C

23.9 C

389 W/m

0.00 mm

18:05

24.4 C

1008.8 hpa

33 %

16.1 km/h aus 117

33.8 km/h aus NE

7.1 C

22.6 C

23.3 C

23.7 C

372 W/m

0.00 mm

18:10

24.3 C

1008.8 hpa

33 %

8.0 km/h aus 117

24.1 km/h aus E

7.0 C

23.6 C

24.3 C

23.6 C

362 W/m

0.00 mm

18:15

24.1 C

1008.7 hpa

32 %

11.3 km/h aus 112

24.1 km/h aus NE

6.4 C

23.3 C

24.1 C

23.3 C

348 W/m

0.00 mm

18:20

24.1 C

1008.7 hpa

32 %

12.9 km/h aus 113

32.2 km/h aus NE

6.4 C

23.0 C

23.8 C

23.3 C

333 W/m

0.00 mm

18:25

24.0 C

1008.7 hpa

32 %

14.5 km/h aus 111

29.0 km/h aus ENE

6.3 C

22.4 C

23.3 C

23.2 C

321 W/m

0.00 mm

18:30

23.9 C

1008.7 hpa

33 %

11.3 km/h aus 108

27.4 km/h aus E

6.7 C

23.2 C

23.9 C

23.2 C

308 W/m

0.00 mm

18:35

23.8 C

1008.7 hpa

33 %

11.3 km/h aus 115

25.7 km/h aus E

6.5 C

23.0 C

23.8 C

23.0 C

292 W/m

0.00 mm

18:40

23.7 C

1008.7 hpa

34 %

12.9 km/h aus 108

29.0 km/h aus NE

6.9 C

22.7 C

23.4 C

23.0 C

277 W/m

0.00 mm

18:45

23.8 C

1008.8 hpa

33 %

8.0 km/h aus 108

22.5 km/h aus NE

6.5 C

23.0 C

23.8 C

23.0 C

264 W/m

0.00 mm

18:50

23.7 C

1008.8 hpa

34 %

9.7 km/h aus 110

22.5 km/h aus E

6.9 C

22.9 C

23.7 C

22.9 C

249 W/m

0.00 mm

18:55

23.6 C

1008.8 hpa

33 %

14.5 km/h aus 113

30.6 km/h aus E

6.3 C

22.1 C

22.8 C

22.8 C

159 W/m

0.00 mm

19:00

23.4 C

1008.9 hpa

34 %

9.7 km/h aus 109

22.5 km/h aus E

6.7 C

22.7 C

23.4 C

22.7 C

46 W/m

0.00 mm

19:05

23.4 C

1008.9 hpa

35 %

9.7 km/h aus 104

22.5 km/h aus E

7.1 C

22.7 C

23.4 C

22.7 C

44 W/m

0.00 mm

19:10

23.3 C

1008.9 hpa

35 %

11.3 km/h aus 94

25.7 km/h aus NE

7.0 C

22.5 C

23.3 C

22.5 C

43 W/m

0.00 mm

19:15

23.2 C

1009.0 hpa

35 %

11.3 km/h aus 92

22.5 km/h aus ESE

6.9 C

22.3 C

23.2 C

22.3 C

42 W/m

0.00 mm

19:20

23.2 C

1009.0 hpa

36 %

11.3 km/h aus 94

25.7 km/h aus E

7.3 C

22.4 C

23.2 C

22.4 C

40 W/m

0.00 mm

19:25

23.1 C

1009.0 hpa

36 %

14.5 km/h aus 99

25.7 km/h aus ENE

7.2 C

21.6 C

22.4 C

22.3 C

40 W/m

0.00 mm

19:30

23.1 C

1009.0 hpa

37 %

9.7 km/h aus 93

20.9 km/h aus NE

7.6 C

22.3 C

23.1 C

22.3 C

39 W/m

0.00 mm

19:35

22.9 C

1009.0 hpa

37 %

12.9 km/h aus 105

25.7 km/h aus ENE

7.5 C

21.8 C

22.7 C

22.1 C

37 W/m

0.00 mm

19:40

22.8 C

1009.0 hpa

37 %

11.3 km/h aus 104

25.7 km/h aus ENE

7.4 C

21.9 C

22.8 C

21.9 C

35 W/m

0.00 mm

19:45

22.7 C

1009.0 hpa

37 %

9.7 km/h aus 105

24.1 km/h aus NNE

7.3 C

21.8 C

22.7 C

21.8 C

32 W/m

0.00 mm

19:50

22.6 C

1009.0 hpa

38 %

6.4 km/h aus 103

17.7 km/h aus ENE

7.6 C

21.7 C

22.6 C

21.7 C

30 W/m

0.00 mm

19:55

22.5 C

1009.0 hpa

39 %

6.4 km/h aus 105

17.7 km/h aus ENE

7.8 C

21.6 C

22.5 C

21.6 C

30 W/m

0.00 mm

20:00

22.3 C

1009.1 hpa

39 %

8.0 km/h aus 92

16.1 km/h aus NE

7.7 C

21.3 C

22.3 C

21.3 C

29 W/m

0.00 mm

20:05

22.2 C

1009.1 hpa

39 %

8.0 km/h aus 84

16.1 km/h aus NE

7.6 C

21.1 C

22.2 C

21.1 C

27 W/m

0.00 mm

20:10

22.1 C

1009.1 hpa

39 %

3.2 km/h aus 73

14.5 km/h aus ENE

7.5 C

20.9 C

22.1 C

20.9 C

26 W/m

0.00 mm

20:15

21.9 C

1009.1 hpa

40 %

6.4 km/h aus 81

16.1 km/h aus NE

7.7 C

20.7 C

21.9 C

20.7 C

23 W/m

0.00 mm

20:20

21.8 C

1009.1 hpa

41 %

6.4 km/h aus 81

17.7 km/h aus NE

7.9 C

20.6 C

21.8 C

20.6 C

21 W/m

0.00 mm

20:25

21.6 C

1009.1 hpa

41 %

4.8 km/h aus 81

16.1 km/h aus NE

7.8 C

20.3 C

21.6 C

20.3 C

19 W/m

0.00 mm

20:30

21.4 C

1009.4 hpa

41 %

6.4 km/h aus 82

19.3 km/h aus ENE

7.6 C

20.1 C

21.4 C

20.1 C

18 W/m

0.00 mm

20:35

21.3 C

1009.4 hpa

42 %

6.4 km/h aus 61

16.1 km/h aus NE

7.8 C

19.9 C

21.3 C

19.9 C

18 W/m

0.00 mm

20:40

21.1 C

1009.4 hpa

42 %

3.2 km/h aus 67

9.7 km/h aus NE

7.7 C

19.7 C

21.1 C

19.7 C

13 W/m

0.00 mm

20:45

20.9 C

1009.6 hpa

42 %

6.4 km/h aus 77

17.7 km/h aus NNE

7.5 C

19.6 C

20.9 C

19.6 C

11 W/m

0.00 mm

20:50

20.8 C

1009.6 hpa

43 %

4.8 km/h aus 67

16.1 km/h aus NE

7.7 C

19.6 C

20.8 C

19.6 C

9 W/m

0.00 mm

20:55

20.6 C

1009.6 hpa

43 %

6.4 km/h aus 55

11.3 km/h aus NE

7.6 C

19.4 C

20.6 C

19.4 C

9 W/m

0.00 mm

21:00

20.4 C

1009.6 hpa

43 %

4.8 km/h aus 63

16.1 km/h aus NNE

7.4 C

19.3 C

20.4 C

19.3 C

9 W/m

0.00 mm

21:05

20.2 C

1009.6 hpa

44 %

4.8 km/h aus 62

16.1 km/h aus NE

7.6 C

19.1 C

20.2 C

19.1 C

9 W/m

0.00 mm

21:10

20.1 C

1009.6 hpa

44 %

4.8 km/h aus 55

11.3 km/h aus NE

7.5 C

19.1 C

20.1 C

19.1 C

9 W/m

0.00 mm

21:15

19.9 C

1009.6 hpa

45 %

6.4 km/h aus 46

16.1 km/h aus NE

7.6 C

18.9 C

19.9 C

18.9 C

9 W/m

0.00 mm

21:20

19.8 C

1009.6 hpa

44 %

4.8 km/h aus 51

11.3 km/h aus NE

7.2 C

18.7 C

19.8 C

18.7 C

9 W/m

0.00 mm

21:25

19.7 C

1009.6 hpa

45 %

6.4 km/h aus 47

16.1 km/h aus NE

7.4 C

18.6 C

19.7 C

18.6 C

9 W/m

0.00 mm

21:30

19.6 C

1009.7 hpa

44 %

8.0 km/h aus 67

20.9 km/h aus NE

7.0 C

18.4 C

19.6 C

18.4 C

9 W/m

0.00 mm

21:35

19.6 C

1009.7 hpa

44 %

9.7 km/h aus 68

20.9 km/h aus ENE

7.0 C

18.4 C

19.6 C

18.4 C

0 W/m

0.00 mm

21:40

19.6 C

1009.7 hpa

44 %

8.0 km/h aus 67

19.3 km/h aus ENE

7.0 C

18.4 C

19.6 C

18.4 C

0 W/m

0.00 mm

21:45

19.6 C

1010.0 hpa

44 %

4.8 km/h aus 60

11.3 km/h aus E

7.0 C

18.4 C

19.6 C

18.4 C

0 W/m

0.00 mm

21:50

19.4 C

1010.0 hpa

45 %

8.0 km/h aus 49

11.3 km/h aus ENE

7.2 C

18.4 C

19.4 C

18.4 C

0 W/m

0.00 mm

21:55

19.4 C

1010.0 hpa

45 %

4.8 km/h aus 52

11.3 km/h aus ENE

7.1 C

18.3 C

19.4 C

18.3 C

0 W/m

0.00 mm

22:00

19.3 C

1010.0 hpa

45 %

6.4 km/h aus 59

14.5 km/h aus ENE

7.1 C

18.3 C

19.3 C

18.3 C

0 W/m

0.00 mm

22:05

19.2 C

1010.0 hpa

45 %

8.0 km/h aus 63

14.5 km/h aus ENE

7.0 C

18.1 C

19.2 C

18.1 C

0 W/m

0.00 mm

22:10

19.2 C

1010.0 hpa

45 %

4.8 km/h aus 55

14.5 km/h aus NE

6.9 C

18.1 C

19.2 C

18.1 C

0 W/m

0.00 mm

22:15

19.1 C

1010.1 hpa

45 %

4.8 km/h aus 61

11.3 km/h aus ENE

6.8 C

17.9 C

19.1 C

17.9 C

0 W/m

0.00 mm

22:20

19.0 C

1010.1 hpa

46 %

3.2 km/h aus 51

11.3 km/h aus ENE

7.1 C

17.9 C

19.0 C

17.9 C

0 W/m

0.00 mm

22:25

18.9 C

1010.1 hpa

46 %

4.8 km/h aus 62

11.3 km/h aus NNE

7.0 C

17.8 C

18.9 C

17.8 C

0 W/m

0.00 mm

22:30

18.8 C

1010.1 hpa

46 %

6.4 km/h aus 62

9.7 km/h aus ENE

6.9 C

17.7 C

18.8 C

17.7 C

0 W/m

0.00 mm

22:35

18.7 C

1010.1 hpa

47 %

6.4 km/h aus 58

9.7 km/h aus ENE

7.1 C

17.6 C

18.7 C

17.6 C

0 W/m

0.00 mm

22:40

18.6 C

1010.1 hpa

47 %

4.8 km/h aus 58

11.3 km/h aus NE

7.0 C

17.4 C

18.6 C

17.4 C

0 W/m

0.00 mm

22:45

18.5 C

1010.1 hpa

47 %

4.8 km/h aus 52

9.7 km/h aus ENE

7.0 C

17.4 C

18.5 C

17.4 C

0 W/m

0.00 mm

22:50

18.4 C

1010.1 hpa

47 %

6.4 km/h aus 55

9.7 km/h aus NE

6.9 C

17.3 C

18.4 C

17.3 C

0 W/m

0.00 mm

22:55

18.3 C

1010.1 hpa

47 %

3.2 km/h aus 49

11.3 km/h aus NE

6.8 C

17.2 C

18.3 C

17.2 C

0 W/m

0.00 mm

23:00

18.2 C

1010.1 hpa

48 %

4.8 km/h aus 51

9.7 km/h aus NE

7.0 C

17.1 C

18.2 C

17.1 C

0 W/m

0.00 mm

23:05

18.1 C

1010.1 hpa

48 %

3.2 km/h aus 64

8.0 km/h aus NE

6.9 C

17.0 C

18.1 C

17.0 C

0 W/m

0.00 mm

23:10

17.9 C

1010.1 hpa

48 %

4.8 km/h aus 63

8.0 km/h aus NE

6.8 C

16.9 C

17.9 C

16.9 C

0 W/m

0.00 mm

23:15

17.8 C

1010.2 hpa

49 %

4.8 km/h aus 50

8.0 km/h aus ENE

7.0 C

16.8 C

17.8 C

16.8 C

0 W/m

0.00 mm

23:20

17.7 C

1010.2 hpa

49 %

4.8 km/h aus 48

9.7 km/h aus ENE

6.9 C

16.7 C

17.7 C

16.7 C

0 W/m

0.00 mm

23:25

17.6 C

1010.2 hpa

49 %

4.8 km/h aus 50

9.7 km/h aus NE

6.8 C

16.6 C

17.6 C

16.6 C

0 W/m

0.00 mm

23:30

17.5 C

1010.4 hpa

50 %

3.2 km/h aus 68

8.0 km/h aus ENE

7.0 C

16.4 C

17.5 C

16.4 C

0 W/m

0.00 mm

23:35

17.4 C

1010.4 hpa

50 %

3.2 km/h aus 72

8.0 km/h aus NE

6.9 C

16.4 C

17.4 C

16.4 C

0 W/m

0.00 mm

23:40

17.3 C

1010.4 hpa

50 %

3.2 km/h aus 72

6.4 km/h aus ENE

6.8 C

16.3 C

17.3 C

16.3 C

0 W/m

0.00 mm

23:45

17.3 C

1010.4 hpa

50 %

3.2 km/h aus 68

6.4 km/h aus ENE

6.8 C

16.2 C

17.3 C

16.2 C

0 W/m

0.00 mm

23:50

17.2 C

1010.4 hpa

50 %

3.2 km/h aus 69

9.7 km/h aus ENE

6.7 C

16.2 C

17.2 C

16.2 C

0 W/m

0.00 mm

23:55

17.2 C

1010.4 hpa

51 %

3.2 km/h aus 70

8.0 km/h aus NE

6.9 C

16.2 C

17.2 C

16.2 C

0 W/m

0.00 mm